Time,TemperatureF,DewpointF,PressureIn,WindDirection,WindDirectionDegrees,WindSpeedMPH,WindSpeedGustMPH,Humidity,HourlyPrecipIn,Conditions,Clouds,dailyrainin,SoftwareType,DateUTC
2013-01-25 00:02:00,56.0,54.0,30.18,SE,124,0.0,9.0,94,0.00,,,0.00,,2013-01-25 06:02:00,
2013-01-25 00:11:00,56.0,54.0,30.18,SE,124,0.0,9.0,94,0.00,,,0.00,,2013-01-25 06:11:00,
2013-01-25 00:21:00,56.0,54.0,30.18,WSW,249,0.0,9.0,94,0.00,,,0.00,,2013-01-25 06:21:00,
2013-01-25 00:32:00,56.0,54.0,30.17,SSE,152,0.0,3.0,94,0.00,,,0.00,,2013-01-25 06:32:00,
2013-01-25 00:41:00,56.0,55.0,30.17,SSE,152,0.0,3.0,95,0.00,,,0.00,,2013-01-25 06:41:00,
2013-01-25 00:51:00,56.0,55.0,30.17,SSE,152,0.0,3.0,95,0.00,,,0.00,,2013-01-25 06:51:00,
2013-01-25 01:02:00,56.0,54.0,30.17,SSE,153,0.0,3.0,94,0.00,,,0.00,,2013-01-25 07:02:00,
2013-01-25 01:11:00,57.0,56.0,30.17,South,182,0.0,3.0,95,0.00,,,0.00,,2013-01-25 07:11:00,
2013-01-25 01:21:00,57.0,56.0,30.17,South,182,0.0,3.0,95,0.00,,,0.00,,2013-01-25 07:21:00,
2013-01-25 01:31:00,57.0,55.0,30.17,South,182,0.0,3.0,94,0.00,,,0.00,,2013-01-25 07:31:00,
2013-01-25 01:42:00,57.0,55.0,30.17,South,182,0.0,3.0,94,0.00,,,0.00,,2013-01-25 07:42:00,
2013-01-25 01:52:00,57.0,55.0,30.17,South,182,0.0,3.0,94,0.00,,,0.00,,2013-01-25 07:52:00,
2013-01-25 02:01:00,57.0,55.0,30.17,SSE,151,1.0,3.0,94,0.00,,,0.00,,2013-01-25 08:01:00,
2013-01-25 02:11:00,57.0,55.0,30.17,SSW,207,1.0,3.0,94,0.00,,,0.00,,2013-01-25 08:11:00,
2013-01-25 02:21:00,57.0,55.0,30.17,SSW,207,1.0,3.0,94,0.00,,,0.00,,2013-01-25 08:21:00,
2013-01-25 02:32:00,57.0,55.0,30.18,SW,231,0.0,4.0,94,0.00,,,0.00,,2013-01-25 08:32:00,
2013-01-25 02:41:00,57.0,55.0,30.18,SW,231,0.0,4.0,94,0.00,,,0.00,,2013-01-25 08:41:00,
2013-01-25 02:52:00,57.0,55.0,30.19,SW,231,0.0,4.0,93,0.00,,,0.00,,2013-01-25 08:52:00,
2013-01-25 03:01:00,56.0,54.0,30.19,SW,231,0.0,4.0,94,0.00,,,0.00,,2013-01-25 09:01:00,
2013-01-25 03:11:00,56.0,55.0,30.19,SW,231,0.0,4.0,95,0.00,,,0.00,,2013-01-25 09:11:00,
2013-01-25 03:21:00,56.0,55.0,30.19,SW,231,0.0,4.0,95,0.00,,,0.00,,2013-01-25 09:21:00,
2013-01-25 03:31:00,56.0,55.0,30.18,SSW,213,0.0,4.0,95,0.00,,,0.00,,2013-01-25 09:31:00,
2013-01-25 03:41:00,56.0,55.0,30.18,SSW,213,0.0,4.0,95,0.00,,,0.00,,2013-01-25 09:41:00,
2013-01-25 03:52:00,55.0,54.0,30.18,SSW,213,0.0,4.0,95,0.00,,,0.00,,2013-01-25 09:52:00,
2013-01-25 04:01:00,55.0,54.0,30.17,SSW,213,0.0,4.0,95,0.00,,,0.00,,2013-01-25 10:01:00,
2013-01-25 04:12:00,55.0,54.0,30.16,South,171,2.0,4.0,96,0.00,,,0.00,,2013-01-25 10:12:00,
2013-01-25 04:21:00,55.0,54.0,30.16,South,171,2.0,4.0,96,0.00,,,0.00,,2013-01-25 10:21:00,
2013-01-25 04:31:00,55.0,54.0,30.16,South,191,2.0,4.0,96,0.00,,,0.00,,2013-01-25 10:31:00,
2013-01-25 04:42:00,55.0,54.0,30.16,South,191,2.0,4.0,96,0.00,,,0.00,,2013-01-25 10:42:00,
2013-01-25 04:51:00,56.0,55.0,30.16,South,190,2.0,6.0,96,0.00,,,0.00,,2013-01-25 10:51:00,
2013-01-25 05:02:00,56.0,55.0,30.16,WSW,242,1.0,6.0,96,0.00,,,0.00,,2013-01-25 11:02:00,
2013-01-25 05:11:00,56.0,55.0,30.16,WSW,242,1.0,6.0,96,0.00,,,0.00,,2013-01-25 11:11:00,
2013-01-25 05:22:00,57.0,56.0,30.16,SW,231,2.0,12.0,96,0.00,,,0.00,,2013-01-25 11:22:00,
2013-01-25 05:32:00,57.0,56.0,30.16,SSW,195,0.0,12.0,95,0.00,,,0.00,,2013-01-25 11:32:00,
2013-01-25 05:42:00,57.0,56.0,30.16,SSW,195,0.0,12.0,95,0.00,,,0.00,,2013-01-25 11:42:00,
2013-01-25 05:52:00,57.0,55.0,30.16,SSW,195,1.0,12.0,94,0.00,,,0.00,,2013-01-25 11:52:00,
2013-01-25 06:02:00,56.0,54.0,30.16,SSW,192,1.0,12.0,94,0.00,,,0.00,,2013-01-25 12:02:00,
2013-01-25 06:11:00,56.0,54.0,30.16,SSW,192,1.0,12.0,94,0.00,,,0.00,,2013-01-25 12:11:00,
2013-01-25 06:22:00,56.0,55.0,30.16,South,182,2.0,12.0,95,0.00,,,0.00,,2013-01-25 12:22:00,
2013-01-25 06:32:00,56.0,54.0,30.15,South,182,2.0,12.0,94,0.00,,,0.00,,2013-01-25 12:32:00,
2013-01-25 06:42:00,56.0,54.0,30.15,South,182,2.0,12.0,94,0.00,,,0.00,,2013-01-25 12:42:00,
2013-01-25 06:53:00,55.0,53.0,30.15,SE,146,3.0,12.0,93,0.00,,,0.00,,2013-01-25 12:53:00,
2013-01-25 07:02:00,55.0,53.0,30.14,South,191,2.0,12.0,93,0.00,,,0.00,,2013-01-25 13:02:00,
2013-01-25 07:11:00,55.0,53.0,30.14,South,191,2.0,12.0,93,0.00,,,0.00,,2013-01-25 13:11:00,
2013-01-25 07:22:00,56.0,54.0,30.14,South,172,1.0,12.0,93,0.00,,,0.00,,2013-01-25 13:22:00,
2013-01-25 07:32:00,56.0,54.0,30.15,SSW,202,1.0,13.0,92,0.00,,,0.00,,2013-01-25 13:32:00,
2013-01-25 07:42:00,56.0,54.0,30.15,SSW,202,1.0,13.0,92,0.00,,,0.00,,2013-01-25 13:42:00,
2013-01-25 07:53:00,56.0,54.0,30.15,SSW,203,2.0,13.0,92,0.00,,,0.00,,2013-01-25 13:53:00,
2013-01-25 08:02:00,56.0,54.0,30.15,SW,216,1.0,13.0,92,0.00,,,0.00,,2013-01-25 14:02:00,
2013-01-25 08:12:00,56.0,54.0,30.15,SW,216,1.0,13.0,92,0.00,,,0.00,,2013-01-25 14:12:00,
2013-01-25 08:22:00,57.0,55.0,30.15,SW,230,2.0,13.0,92,0.00,,,0.00,,2013-01-25 14:22:00,
2013-01-25 08:32:00,57.0,54.0,30.15,SSW,198,5.0,13.0,91,0.00,,,0.00,,2013-01-25 14:32:00,
2013-01-25 08:42:00,57.0,54.0,30.15,SSW,198,5.0,13.0,91,0.00,,,0.00,,2013-01-25 14:42:00,
2013-01-25 08:53:00,58.0,55.0,30.15,SSW,200,1.0,13.0,90,0.00,,,0.00,,2013-01-25 14:53:00,
2013-01-25 09:02:00,59.0,56.0,30.16,SSW,201,2.0,13.0,89,0.00,,,0.00,,2013-01-25 15:02:00,
2013-01-25 09:12:00,61.0,57.0,30.17,WSW,243,3.0,13.0,86,0.00,,,0.00,,2013-01-25 15:12:00,
2013-01-25 09:22:00,61.0,57.0,30.17,WSW,243,3.0,13.0,86,0.00,,,0.00,,2013-01-25 15:22:00,
2013-01-25 09:32:00,61.0,56.0,30.18,SW,220,6.0,15.0,83,0.00,,,0.00,,2013-01-25 15:32:00,
2013-01-25 09:42:00,61.0,56.0,30.18,SW,220,6.0,15.0,83,0.00,,,0.00,,2013-01-25 15:42:00,
2013-01-25 09:53:00,61.0,56.0,30.19,SW,228,3.0,15.0,83,0.00,,,0.00,,2013-01-25 15:53:00,
2013-01-25 10:03:00,63.0,57.0,30.19,SW,218,3.0,15.0,82,0.00,,,0.00,,2013-01-25 16:03:00,
2013-01-25 10:12:00,63.0,57.0,30.19,SW,218,3.0,15.0,82,0.00,,,0.00,,2013-01-25 16:12:00,
2013-01-25 10:22:00,63.0,57.0,30.19,WSW,255,2.0,15.0,81,0.00,,,0.00,,2013-01-25 16:22:00,
2013-01-25 10:32:00,64.0,58.0,30.20,West,275,2.0,15.0,80,0.00,,,0.00,,2013-01-25 16:32:00,
2013-01-25 10:42:00,64.0,58.0,30.20,West,275,2.0,15.0,80,0.00,,,0.00,,2013-01-25 16:42:00,
2013-01-25 10:52:00,65.0,58.0,30.19,SW,218,3.0,15.0,78,0.00,,,0.00,,2013-01-25 16:52:00,
2013-01-25 11:02:00,65.0,58.0,30.18,WSW,246,1.0,15.0,77,0.00,,,0.00,,2013-01-25 17:02:00,
2013-01-25 11:12:00,65.0,58.0,30.18,WSW,246,1.0,15.0,77,0.00,,,0.00,,2013-01-25 17:12:00,
2013-01-25 11:22:00,67.0,58.0,30.17,WSW,238,3.0,15.0,73,0.00,,,0.00,,2013-01-25 17:22:00,
2013-01-25 11:32:00,67.0,57.0,30.15,SSW,209,6.0,16.0,71,0.00,,,0.00,,2013-01-25 17:32:00,
2013-01-25 11:42:00,67.0,57.0,30.15,SSW,209,6.0,16.0,71,0.00,,,0.00,,2013-01-25 17:42:00,
2013-01-25 11:53:00,69.0,58.0,30.15,SW,231,7.0,20.0,67,0.00,,,0.00,,2013-01-25 17:53:00,
2013-01-25 12:02:00,70.0,58.0,30.15,SSW,202,7.0,20.0,66,0.00,,,0.00,,2013-01-25 18:02:00,
2013-01-25 12:11:00,70.0,58.0,30.15,SSW,202,7.0,20.0,66,0.00,,,0.00,,2013-01-25 18:11:00,
2013-01-25 12:23:00,70.0,58.0,30.15,West,269,7.0,21.0,65,0.00,,,0.00,,2013-01-25 18:23:00,
2013-01-25 12:32:00,70.0,58.0,30.14,SW,216,1.0,21.0,66,0.00,,,0.00,,2013-01-25 18:32:00,
2013-01-25 12:42:00,70.0,58.0,30.14,SW,216,1.0,21.0,66,0.00,,,0.00,,2013-01-25 18:42:00,
2013-01-25 12:52:00,71.0,58.0,30.12,SW,231,5.0,21.0,64,0.00,,,0.00,,2013-01-25 18:52:00,
2013-01-25 13:03:00,71.0,58.0,30.11,West,263,2.0,21.0,63,0.00,,,0.00,,2013-01-25 19:03:00,
2013-01-25 13:12:00,71.0,58.0,30.11,West,263,2.0,21.0,63,0.00,,,0.00,,2013-01-25 19:12:00,
2013-01-25 13:22:00,73.0,58.0,30.10,SW,220,0.0,21.0,60,0.00,,,0.00,,2013-01-25 19:22:00,
2013-01-25 13:32:00,72.0,57.0,30.09,SW,226,5.0,21.0,60,0.00,,,0.00,,2013-01-25 19:32:00,
2013-01-25 13:42:00,72.0,57.0,30.09,SW,226,5.0,21.0,60,0.00,,,0.00,,2013-01-25 19:42:00,
2013-01-25 13:53:00,72.0,57.0,30.09,West,274,3.0,21.0,60,0.00,,,0.00,,2013-01-25 19:53:00,
2013-01-25 14:02:00,72.0,57.0,30.09,SW,220,2.0,21.0,59,0.00,,,0.00,,2013-01-25 20:02:00,
2013-01-25 14:12:00,72.0,57.0,30.09,SW,220,2.0,21.0,59,0.00,,,0.00,,2013-01-25 20:12:00,
2013-01-25 14:22:00,72.0,56.0,30.08,SW,219,5.0,21.0,58,0.00,,,0.00,,2013-01-25 20:22:00,
2013-01-25 14:32:00,72.0,57.0,30.08,SSW,210,5.0,21.0,59,0.00,,,0.00,,2013-01-25 20:32:00,
2013-01-25 14:42:00,72.0,57.0,30.08,SSW,210,5.0,21.0,59,0.00,,,0.00,,2013-01-25 20:42:00,
2013-01-25 14:52:00,72.0,56.0,30.08,SW,228,5.0,21.0,57,0.00,,,0.00,,2013-01-25 20:52:00,
2013-01-25 15:02:00,72.0,56.0,30.08,WSW,255,3.0,21.0,58,0.00,,,0.00,,2013-01-25 21:02:00,
2013-01-25 15:11:00,72.0,56.0,30.08,WSW,255,3.0,21.0,58,0.00,,,0.00,,2013-01-25 21:11:00,
2013-01-25 15:22:00,73.0,57.0,30.07,SW,220,1.0,21.0,58,0.00,,,0.00,,2013-01-25 21:22:00,
2013-01-25 15:32:00,74.0,58.0,30.07,SW,227,1.0,21.0,57,0.00,,,0.00,,2013-01-25 21:32:00,
2013-01-25 15:42:00,74.0,58.0,30.07,SW,227,1.0,21.0,57,0.00,,,0.00,,2013-01-25 21:42:00,
2013-01-25 15:52:00,73.0,56.0,30.07,WSW,255,2.0,21.0,55,0.00,,,0.00,,2013-01-25 21:52:00,
2013-01-25 16:02:00,73.0,56.0,30.06,West,264,0.0,21.0,55,0.00,,,0.00,,2013-01-25 22:02:00,
2013-01-25 16:11:00,73.0,55.0,30.07,West,271,1.0,21.0,54,0.00,,,0.00,,2013-01-25 22:11:00,
2013-01-25 16:22:00,73.0,55.0,30.07,West,271,1.0,21.0,54,0.00,,,0.00,,2013-01-25 22:22:00,
2013-01-25 16:32:00,73.0,55.0,30.07,West,267,3.0,21.0,54,0.00,,,0.00,,2013-01-25 22:32:00,
2013-01-25 16:42:00,73.0,55.0,30.07,West,267,3.0,21.0,54,0.00,,,0.00,,2013-01-25 22:42:00,
2013-01-25 16:51:00,72.0,55.0,30.07,WSW,247,1.0,21.0,55,0.00,,,0.00,,2013-01-25 22:51:00,
2013-01-25 17:02:00,72.0,55.0,30.07,WSW,243,2.0,21.0,56,0.00,,,0.00,,2013-01-25 23:02:00,
2013-01-25 17:11:00,72.0,55.0,30.07,WSW,243,2.0,21.0,56,0.00,,,0.00,,2013-01-25 23:11:00,
2013-01-25 17:22:00,71.0,55.0,30.06,WSW,243,0.0,21.0,57,0.00,,,0.00,,2013-01-25 23:22:00,
2013-01-25 17:32:00,71.0,55.0,30.07,WSW,243,0.0,21.0,58,0.00,,,0.00,,2013-01-25 23:32:00,
2013-01-25 17:42:00,71.0,55.0,30.07,WSW,243,0.0,21.0,58,0.00,,,0.00,,2013-01-25 23:42:00,
2013-01-25 17:52:00,70.0,55.0,30.09,WSW,243,0.0,21.0,59,0.00,,,0.00,,2013-01-25 23:52:00,
2013-01-25 18:01:00,70.0,55.0,30.09,WSW,243,0.0,21.0,60,0.00,,,0.00,,2013-01-26 00:01:00,
2013-01-25 18:11:00,70.0,55.0,30.09,WSW,243,0.0,21.0,60,0.00,,,0.00,,2013-01-26 00:11:00,
2013-01-25 18:22:00,69.0,55.0,30.09,WSW,243,0.0,21.0,61,0.00,,,0.00,,2013-01-26 00:22:00,
2013-01-25 18:32:00,69.0,56.0,30.10,WSW,243,0.0,21.0,63,0.00,,,0.00,,2013-01-26 00:32:00,
2013-01-25 18:42:00,69.0,56.0,30.10,WSW,243,0.0,21.0,63,0.00,,,0.00,,2013-01-26 00:42:00,
2013-01-25 18:52:00,67.0,56.0,30.11,NNW,340,1.0,21.0,67,0.00,,,0.00,,2013-01-26 00:52:00,
2013-01-25 19:02:00,66.0,56.0,30.12,NW,309,2.0,21.0,70,0.00,,,0.00,,2013-01-26 01:02:00,
2013-01-25 19:11:00,66.0,56.0,30.12,NW,309,2.0,21.0,70,0.00,,,0.00,,2013-01-26 01:11:00,
2013-01-25 19:22:00,64.0,55.0,30.12,NNE,22,1.0,21.0,72,0.00,,,0.00,,2013-01-26 01:22:00,
2013-01-25 19:32:00,62.0,54.0,30.13,NW,324,1.0,21.0,75,0.00,,,0.00,,2013-01-26 01:32:00,
2013-01-25 19:42:00,62.0,54.0,30.13,NW,324,1.0,21.0,75,0.00,,,0.00,,2013-01-26 01:42:00,
2013-01-25 19:52:00,61.0,53.0,30.13,NNW,345,2.0,21.0,76,0.00,,,0.00,,2013-01-26 01:52:00,
2013-01-25 20:01:00,61.0,54.0,30.13,NNW,331,1.0,21.0,77,0.00,,,0.00,,2013-01-26 02:01:00,
2013-01-25 20:11:00,61.0,54.0,30.13,NNW,331,1.0,21.0,77,0.00,,,0.00,,2013-01-26 02:11:00,
2013-01-25 20:22:00,60.0,53.0,30.14,NNW,334,2.0,21.0,78,0.00,,,0.00,,2013-01-26 02:22:00,
2013-01-25 20:32:00,59.0,52.0,30.14,NNW,344,3.0,21.0,79,0.00,,,0.00,,2013-01-26 02:32:00,
2013-01-25 20:42:00,59.0,52.0,30.14,NNW,344,3.0,21.0,79,0.00,,,0.00,,2013-01-26 02:42:00,
2013-01-25 20:52:00,58.0,52.0,30.14,NNE,15,2.0,21.0,81,0.00,,,0.00,,2013-01-26 02:52:00,
2013-01-25 21:02:00,57.0,51.0,30.14,NNW,334,2.0,21.0,81,0.00,,,0.00,,2013-01-26 03:02:00,
2013-01-25 21:11:00,57.0,51.0,30.14,NNW,334,2.0,21.0,81,0.00,,,0.00,,2013-01-26 03:11:00,
2013-01-25 21:21:00,57.0,52.0,30.14,NW,324,1.0,21.0,83,0.00,,,0.00,,2013-01-26 03:21:00,
2013-01-25 21:31:00,56.0,51.0,30.15,NW,325,0.0,21.0,83,0.00,,,0.00,,2013-01-26 03:31:00,
2013-01-25 21:42:00,56.0,51.0,30.15,NW,325,0.0,21.0,83,0.00,,,0.00,,2013-01-26 03:42:00,
2013-01-25 21:52:00,56.0,51.0,30.15,NW,315,1.0,21.0,84,0.00,,,0.00,,2013-01-26 03:52:00,
2013-01-25 22:01:00,56.0,51.0,30.16,NW,316,2.0,21.0,84,0.00,,,0.00,,2013-01-26 04:01:00,
2013-01-25 22:12:00,56.0,51.0,30.16,NW,316,2.0,21.0,84,0.00,,,0.00,,2013-01-26 04:12:00,
2013-01-25 22:21:00,56.0,52.0,30.16,NW,316,0.0,21.0,85,0.00,,,0.00,,2013-01-26 04:21:00,
2013-01-25 22:32:00,56.0,52.0,30.16,NW,316,1.0,21.0,85,0.00,,,0.00,,2013-01-26 04:32:00,
2013-01-25 22:42:00,56.0,52.0,30.16,NW,316,1.0,21.0,85,0.00,,,0.00,,2013-01-26 04:42:00,
2013-01-25 22:52:00,55.0,51.0,30.16,NW,316,0.0,21.0,85,0.00,,,0.00,,2013-01-26 04:52:00,
2013-01-25 23:03:00,56.0,52.0,30.16,NW,316,0.0,21.0,86,0.00,,,0.00,,2013-01-26 05:03:00,
2013-01-25 23:12:00,56.0,52.0,30.16,NW,316,0.0,21.0,86,0.00,,,0.00,,2013-01-26 05:12:00,
2013-01-25 23:23:00,55.0,51.0,30.16,NNW,340,0.0,21.0,86,0.00,,,0.00,,2013-01-26 05:23:00,
2013-01-25 23:33:00,55.0,51.0,30.16,NNW,339,1.0,21.0,87,0.00,,,0.00,,2013-01-26 05:33:00,
2013-01-25 23:41:00,55.0,51.0,30.16,NNW,339,1.0,21.0,87,0.00,,,0.00,,2013-01-26 05:41:00,
2013-01-25 23:52:00,55.0,51.0,30.16,NNW,339,1.0,21.0,87,0.00,,,0.00,,2013-01-26 05:52:00,